STARLINK-34311, 64206

Orbit data source: Space-Track

STARLINK-34311, 64206 is a payload satellite owned by SpaceX/Seattle (US) in LEO that was launched on Sat, 31 May 2025 UTC via an FALCON 9 launch vehicle from the Air Force Western Test Range (AFWTR). Payload-class satellites include a variety of spacecraft equipped with specific instruments for various scientific and technological missions. These include communications satellites like Starlink; space stations such as the ISS; scientific satellites like the Hubble; Earth observation satellites from companies like Planet Labs, Umbra, and HawkEye 360; GPS; miniature CubeSats for education and research; and military/defense satellites.

Loading next visibility...
Identifier
64206, 2025-117D
Orbit
LEO
Last TLE update
4 hours ago
Origin
Manufacturer
SpaceX/Seattle
Mission
Operational Commercial Communications
Bus & Motor
STARLINK V2MO, Unknown motor
Mass
575 kg wet, ~530 kg dry
Launch date (UTC)
2025-05-31 (2 months ago)
Launch vehicle
FALCON 9
Launch site
Air Force Western Test Range (AFWTR)
Object type
Payload
Rocket body
Debris
Shape & HBR
Box + 1 Pan, 14.5 m
Radar Cross Section
41.120 m², Large (>1 m²)

Expand to show TLE details & history

TLE from 4 hours ago
0 STARLINK-34311
1 64206U 25117D   25211.55823525  .00037259  00000-0  93652-3 0  9994
2 64206  53.1589 353.0014 0001155  94.3916 265.7221 15.39632727  9471
Epoch: 2025-07-30T13:23Z
TLE epoch observation values (Epoch: 2025-07-30T13:23:51.525Z)
Latitude
-0.00001°
Longitude
-156.39904°
Altitude
448.157 km
Speed
7.645 km/s
True Right ascension
23h 32m 00s
True Declination
0° 00' 00"
Sunlit
Object was in full shadow at epoch
Visualization orbit readout
Latitude
-40.0808°
Longitude
61.6183°
Altitude
460.944 km
Speed
7.636 km/s
Apparent Right ascension
16h 28m 44s
Apparent Declination
-46° 28' 11"
Sunlit
Object is in daylight
Visualization observer readout
Local Sidereal Time
07:05:17
Azimuth
116.134° SE
Elevation
-61.038°
Doppler factor
1
Orbital elements
Apogee altitude
448.241 km
Perigee altitude
446.664 km
Semi-major axis
6,825.589 km
Eccentricity
0.00012
Inclination
53.1589°
RAAN
353.0014°
Arg. of periapsis
94.3916°
True anomaly
265.7089°
Mean anomaly
265.7221°
Eccentric anomaly
265.7155°
Mean motion
3.84887 °/min
Orbital period
93.53 mins
BSTAR
0.00093652
Loading maneuver chart data...
Loading SW <> Apogee altitude chart data...
Loading historical data...
Loading historical data...
Loading historical data...
Loading historical data...
Loading historical data...
Loading historical data...
Loading historical data...
|